Location: Centerville
(32.8776°N, 96.6203°W)
Time: 05:32:55
(UTC+00:00)

Cosmos 2278 Rocket - Pass Details

Date: 17 June 2021
Orbit: 840 x 846 km, 71.0° (Epoch: 29 July)

Event Time Altitude Azimuth Distance (km) Brightness Sun altitude
Rises 04:57:56 0° 354° (N) 3,405 6.4 -29.8°
Reaches altitude 10° 05:00:56 10° 9° (N) 2,468 5.3 -30.1°
Enters shadow 05:05:19 23° 60° (ENE) 1,743 3.9 -30.4°
